Location: Newark
(13.6797°N, 8.5297°E)
Time: 03:38:19
(UTC+00:00)

Courier 1B Rocket - Pass Details

Date: 20 January 2020
Orbit: 920 x 1202 km, 28.2° (Epoch: 17 February)

Event Time Altitude Azimuth Distance (km) Brightness Sun altitude
Rises 10:10:56 0° 236° (SW) 3,979 8.2 50.1°
Reaches altitude 10° 10:13:49 10° 234° (SW) 2,981 7.7 50.5°
Maximum altitude 10:21:05 69° 152° (SSE) 1,125 7.2 51.4°
Drops below altitude 10° 10:27:49 10° 70° (ENE) 2,771 7.6 52.1°
Sets 10:30:25 0° 68° (ENE) 3,683 8.1 52.4°
